Location: Roland
(31.1349°N, 85.4372°W)
Time: 23:10:21
(UTC+00:00)

S-56A Canister/Altair - Pass Details

Date: 26 April 2021
Orbit: 632 x 2501 km, 38.9° (Epoch: 11 May)

Event Time Altitude Azimuth Distance (km) Brightness Sun altitude
Exits shadow 09:00:51 22° 150° (SSE) 1,399 8.8 -24.2°
Drops below altitude 10° 09:02:29 10° 140° (SE) 1,999 9.7 -23.9°
Sets 09:04:45 0° 134° (SE) 2,909 10.7 -23.5°
